Torna al catalogo

STARLINK-5429

AttivoComunicazioniVLEO
NORAD 54801·PAYLOAD·🇺🇸 United States

Lanciato Dec 17, 2022 da Cape Canaveral Space Force Station

Loading…

Prossimi Passaggi (prossime 24 ore)

TLE

AggiornatoSource: CelesTrak SupGP

Epoca: Sep 14, 2026, 22:00 UTC

1 54801C 22175AV  26257.91715278  .00023067  00000+0  74169-3 0  2571
2 54801  53.1570 260.9049 0001395  91.1473 246.8552 15.31693522    14

Traccia STARLINK-5429 in tempo reale con AllMySat

Download on the App Store